This demonstration page uses our WeatherBlox Daily Observations layout. Learn more.

Left ArrowRight Arrow

Hourly Observations for July 29, 2018

Temp ( °F °C ) Dew Point ( °F °C ) Humidity (%) Winds ( mph kmh ) Pressure ( in mb ) Visibility ( mi km ) Precip ( " mm )
12:59 am 00:59 Cloudy 77 25 73 22.8 88 88 Calm 30.05 1018 10 16 0.00 0.00
1:34 am 01:34 Cloudy with Thunderstorms 76 24.4 73 22.8 91 91 Calm 30.06 1018 10 16 0.00 0.00
1:50 am 01:50 Cloudy 77 25 73 22.8 88 88 Calm 30.06 1018 10 16 0.00 0.00
1:59 am 01:59 Cloudy 76 24.4 73 22.8 91 91 Calm 30.06 1018 10 16 0.00 0.00
2:48 am 02:48 Cloudy 77 25 73 22.8 88 88 WNW 5 7 30.06 1018 10 16 0.00 0.00
2:59 am 02:59 Cloudy 78 25.6 72 22.2 82 82 NW 5 7 30.06 1018 10 16 0.00 0.00
3:33 am 03:33 Cloudy 77 25 71 21.7 82 82 N 5 7 30.06 1018 10 16 0.00 0.00
3:59 am 03:59 Cloudy 78 25.6 71 21.7 79 79 Calm 30.06 1018 10 16 0.00 0.00
4:59 am 04:59 Cloudy 77 25 72 22.2 85 85 ENE 6 9 30.07 1018 10 16 0.00 0.00
5:59 am 05:59 Cloudy 77 25 71 21.7 82 82 ENE 9 15 30.07 1018 10 16 0.00 0.00
6:59 am 06:59 Cloudy 76 24.4 72 22.2 88 88 ENE 6 9 30.09 1019 8 13 0.01 0.25
7:59 am 07:59 Mostly Cloudy 77 25 70 21.1 79 79 E 9 15 30.09 1019 9 14 0.00 0.03
8:59 am 08:59 Mostly Cloudy 79 26.1 69 20.6 72 72 E 8 13 30.09 1019 10 16 0.00 0.00
9:59 am 09:59 Mostly Cloudy 80 26.7 68 20 67 67 E 3 6 30.10 1019 10 16 0.00 0.00
10:59 am 10:59 Mostly Cloudy 82 27.8 68 20 63 63 E 10 17 30.10 1019 10 16 0.00 0.00
11:59 am 11:59 Mostly Cloudy 82 27.8 68 20 63 63 NE 12 19 30.11 1020 10 16 0.00 0.00
12:59 pm 12:59 Mostly Cloudy 82 27.8 69 20.6 65 65 ENE 7 11 30.10 1019 10 16 0.00 0.00
1:59 pm 13:59 Mostly Cloudy 82 27.8 70 21.1 67 67 E 7 11 30.09 1019 10 16 0.00 0.00
2:59 pm 14:59 Mostly Cloudy 84 28.9 71 21.7 65 65 ENE 10 17 30.09 1019 10 16 0.00 0.00
3:59 pm 15:59 Mostly Cloudy 83 28.3 70 21.1 65 65 ENE 12 19 30.08 1019 10 16 0.00 0.00
4:59 pm 16:59 Mostly Cloudy 82 27.8 71 21.7 69 69 ENE 12 19 30.09 1019 10 16 0.00 0.00
5:59 pm 17:59 Mostly Cloudy 82 27.8 71 21.7 69 69 E 9 15 30.09 1019 10 16 0.00 0.00
6:59 pm 18:59 Mostly Cloudy 81 27.2 70 21.1 69 69 ENE 8 13 30.09 1019 10 16 0.00 0.00
7:59 pm 19:59 Mostly Cloudy 79 26.1 71 21.7 77 77 ESE 5 7 30.10 1019 10 16 0.00 0.00
8:59 pm 20:59 Mostly Cloudy 78 25.6 72 22.2 82 82 ESE 5 7 30.10 1019 10 16 0.00 0.00
9:59 pm 21:59 Mostly Cloudy 78 25.6 71 21.7 79 79 Calm 30.12 1020 10 16 0.00 0.00
10:59 pm 22:59 Mostly Cloudy 77 25 72 22.2 85 85 ESE 5 7 30.12 1020 10 16 0.00 0.00
11:59 pm 23:59 Cloudy 78 25.6 72 22.2 82 82 SE 3 6 30.13 1020 10 16 0.00 0.00

Powered by AerisWeather